Weather History for Beaufort, NC

Change the Weather History Date:

Wednesday, February 22, 2012

  Actual Average Record
Temperature  
Mean Temperature 57 °F -  
Max Temperature 62 °F 61 °F 72 °F (1971)
Min Temperature 52 °F 39 °F 22 °F (1988)
Degree Days  
Heating Degree Days 8    
Growing Degree Days 7 (Base 50)    
Moisture  
Dew Point 53 °F    
Average Humidity 84    
Maximum Humidity 93    
Minimum Humidity 75    
Precipitation  
Precipitation 0.00 in - - ()
Sea Level Pressure  
Sea Level Pressure 29.88 in    
Wind  
Wind Speed 11 mph (SW)    
Max Wind Speed 18 mph    
Max Gust Speed 24 mph    
Visibility 9 miles    
Events      
Averages and records for this station are not official NWS values.
T = Trace of Precipitation, MM = Missing Value Source: NWS Daily Summary

Daily Weather History Graph

Daily Weather History Graph

Search for Another Location

Airport:

Trip Planner

Search our weather history database for the weather conditions in past years. The results will help you decide how hot, cold, wet, or windy it might be!

Date:

Astronomy

Feb. 22, 2012 Rise Set
Actual Time 6:45 AM EST 5:55 PM EST
Civil Twilight 6:19 AM EST 6:21 PM EST
Nautical Twilight 5:50 AM EST 6:50 PM EST
Astronomical Twilight 5:20 AM EST 7:20 PM EST
Moon 6:46 AM EST (2/22) 6:55 PM EST (2/22)
Length of Visible Light 12h 01m
Length of Day
11h 10m
New Moon, 1% of the Moon is Illuminated
Feb 22
New Moon
Feb 29
First Quarter
Mar 8
Full
Mar 14
Last Quarter
Mar 22
New

Hourly Weather History & Observations

Time (EST) Temp. Dew Point Humidity Pressure Visibility Wind Dir Wind Speed Gust Speed Precip Events Conditions
12:56 AM 55.0 °F 51.1 °F 86% 30.04 in 10.0 mi WSW 9.2 mph - N/A   Clear
1:56 AM 54.0 °F 50.0 °F 86% 30.03 in 9.0 mi WSW 6.9 mph - N/A   Clear
2:56 AM 53.1 °F 50.0 °F 89% 30.00 in 10.0 mi WSW 8.1 mph - N/A   Clear
3:56 AM 53.1 °F 50.0 °F 89% 29.98 in 8.0 mi WSW 10.4 mph - N/A   Clear
4:56 AM 52.0 °F 50.0 °F 93% 29.99 in 10.0 mi WSW 8.1 mph - N/A   Clear
5:56 AM 52.0 °F 50.0 °F 93% 29.99 in 10.0 mi WSW 9.2 mph - N/A   Clear
7:56 AM 53.1 °F 50.0 °F 89% 30.00 in 8.0 mi WSW 8.1 mph - N/A   Clear
8:56 AM 55.0 °F 50.0 °F 83% 30.00 in 9.0 mi SW 8.1 mph - N/A   Clear
9:56 AM 57.9 °F 51.1 °F 78% 29.99 in 9.0 mi SW 9.2 mph - N/A   Clear
10:56 AM 60.1 °F 53.1 °F 78% 29.97 in 10.0 mi SW 9.2 mph - N/A   Clear
11:56 AM 61.0 °F 54.0 °F 78% 29.95 in 10.0 mi SW 13.8 mph - N/A   Clear
12:56 PM 62.1 °F 55.0 °F 78% 29.90 in 10.0 mi SSW 11.5 mph - N/A   Clear
1:54 PM 62.6 °F 55.4 °F 77% 29.87 in 1.0 mi SSW 15.0 mph - N/A   Haze
1:56 PM 62.1 °F 55.0 °F 78% 29.87 in 1.0 mi SSW 13.8 mph 23.0 mph N/A   Haze
2:03 PM 62.6 °F 55.4 °F 77% 29.86 in 5.0 mi SW 15.0 mph - N/A   Haze
2:56 PM 62.1 °F 55.0 °F 78% 29.85 in 10.0 mi SSW 13.8 mph - N/A   Clear
3:56 PM 62.1 °F 54.0 °F 75% 29.81 in 10.0 mi SSW 16.1 mph 24.2 mph N/A   Clear
4:56 PM 59.0 °F 53.1 °F 81% 29.80 in 10.0 mi SSW 13.8 mph - N/A   Clear
5:56 PM 59.0 °F 52.0 °F 78% 29.78 in 10.0 mi SSW 15.0 mph - N/A   Clear
6:56 PM 59.0 °F 54.0 °F 83% 29.77 in 10.0 mi SSW 13.8 mph - N/A   Clear
7:56 PM 59.0 °F 55.0 °F 87% 29.76 in 10.0 mi SW 12.7 mph - N/A   Clear
8:56 PM 57.0 °F 54.0 °F 89% 29.74 in 10.0 mi SSW 10.4 mph - N/A   Clear
9:56 PM 59.0 °F 55.9 °F 90% 29.72 in 9.0 mi SW 13.8 mph - N/A   Clear
10:56 PM 59.0 °F 55.9 °F 90% 29.69 in 9.0 mi SW 15.0 mph - N/A   Clear
11:56 PM 59.0 °F 55.9 °F 90% 29.68 in 9.0 mi SW 18.4 mph - N/A   Clear